{"data":{"norad_id":61777,"epoch":"2026-09-22T21:42:10.773504Z","epoch_age_seconds":94398,"freshness":"FRESH","line1":"1 61777U 24199AU  26265.90429136  .00014432  00000+0  26956-3 0  9992","line2":"2 61777  97.2815 139.1518 0011441 281.3298  78.6667 15.48795481149291","mean_motion":15.48795481,"eccentricity":0.0011441,"inclination_deg":97.2815,"raan_deg":139.1518,"arg_perigee_deg":281.3298,"mean_anomaly_deg":78.6667,"bstar":0.00026956,"rev_number":14929,"period_min":92.975477890099,"perigee_km":412.47055049353,"apogee_km":428.02661638556,"semimajor_km":6798.3855834395,"source":"CELESTRAK","updated_at":"2026-09-23T09:00:21.035633Z"}}